DW2485 Weather Reports


time (UTC)temp
C
wind
direction
speed
KPH
gust
KPH
rain 1hr
cm
rain 24hr
cm
rain mn
cm
humidity
%
barometer
mb
20260901021506 24 161 3.2 3.2 0.00 0.00 0.00 92 1014.8
20260901021005 24 161 1.6 1.6 0.00 0.00 0.00 92 1014.9
20260901015506 24 161 3.2 3.2 0.00 0.00 0.00 91 1014.6
20260901015006 25 190 1.6 3.2 0.00 0.00 0.00 90 1014.6
20260901014505 25 190 1.6 1.6 0.00 0.00 0.00 89 1014.6
20260901014005 25 190 0.0 3.2 0.00 0.00 0.00 88 1014.6
20260901013506 26 190 1.6 3.2 0.00 0.00 0.00 86 1014.6
20260901012505 26 190 0.0 3.2 0.00 0.00 0.00 87 1014.5
20260901012006 26 190 0.0 1.6 0.00 0.00 0.00 85 1014.4
20260901011505 26 190 1.6 1.6 0.00 0.00 0.00 85 1014.3
20260901011005 26 190 0.0 1.6 0.00 0.00 0.00 83 1014.2
20260901010006 26 190 1.6 3.2 0.00 0.00 0.00 83 1014.2
20260901005006 27 199 3.2 4.8 0.00 0.00 0.00 83 1014.0
20260901004505 27 173 4.8 8.0 0.00 0.00 0.00 82 1014.1
20260901002506 28 230 3.2 4.8 0.00 0.00 0.00 79 1014.1
20260901001006 28 197 4.8 4.8 0.00 0.00 0.00 77 1013.9
20260831233505 30 194 8.0 12.9 0.00 0.00 0.00 74 1013.9
20260831233006 30 191 8.0 11.3 0.00 0.00 0.00 74 1014.0
20260831231505 30 192 9.7 14.5 0.00 0.00 0.00 73 1013.9
20260831231005 30 188 4.8 11.3 0.00 0.00 0.00 72 1013.8
20260831225006 30 188 4.8 16.1 0.00 0.00 0.00 71 1013.8
20260831224505 30 195 9.7 16.1 0.00 0.00 0.00 71 1013.7
20260831224005 31 197 8.0 14.5 0.00 0.00 0.00 71 1013.7
20260831223505 31 189 4.8 14.5 0.00 0.00 0.00 71 1013.6
20260831223005 31 186 9.7 14.5 0.00 0.00 0.00 72 1013.6
20260831222005 30 193 6.4 14.5 0.00 0.00 0.00 71 1013.6
20260831220005 31 177 9.7 19.3 0.00 0.00 0.00 69 1013.4
20260831215505 31 187 11.3 19.3 0.00 0.00 0.00 68 1013.3
20260831213005 31 163 14.5 19.3 0.00 0.00 0.00 70 1013.4
20260831212005 31 169 8.0 11.3 0.00 0.00 0.00 71 1013.6
20260831211005 31 193 8.0 12.9 0.00 0.00 0.00 69 1013.7
20260831210505 31 211 4.8 9.7 0.00 0.00 0.00 69 1013.7
20260831205505 32 190 6.4 14.5 0.00 0.00 0.00 65 1013.8
20260831204504 32 196 4.8 8.0 0.00 0.03 0.00 68 1013.9
20260831203505 31 194 3.2 8.0 0.00 0.05 0.00 68 1013.7
20260831203005 30 169 4.8 9.7 0.00 0.08 0.00 69 1013.7
20260831202505 31 189 8.0 12.9 0.00 0.13 0.00 67 1014.0
20260831201505 32 171 4.8 14.5 0.00 0.28 0.00 66 1013.6
20260831201005 32 198 8.0 11.3 0.00 0.30 0.00 66 1013.6
20260831200505 32 190 8.0 12.9 0.00 0.33 0.00 65 1013.6
20260831200005 32 237 3.2 9.7 0.00 0.36 0.00 65 1013.9
20260831195505 32 225 4.8 11.3 0.00 0.41 0.00 65 1014.0
20260831194005 31 186 9.7 12.9 0.00 0.48 0.00 65 1013.9
20260831192505 32 203 8.0 12.9 0.00 0.58 0.00 65 1014.1
20260831191005 31 211 6.4 11.3 0.00 0.61 0.00 67 1014.2
20260831190005 32 181 8.0 12.9 0.00 0.61 0.00 65 1014.1
20260831185505 31 208 8.0 12.9 0.00 0.61 0.00 66 1014.1
20260831184504 31 235 3.2 9.7 0.00 0.61 0.00 65 1014.0
20260831183505 31 235 4.8 9.7 0.00 0.61 0.00 67 1013.9
20260831182005 30 189 6.4 9.7 0.00 0.61 0.00 68 1014.2
20260831181005 31 215 3.2 9.7 0.00 0.61 0.00 66 1014.2
20260831180005 31 190 6.4 9.7 0.00 0.64 0.00 64 1014.0
20260831175504 32 230 4.8 12.9 0.00 0.64 0.00 65 1014.0
20260831175005 31 283 11.3 16.1 0.00 0.64 0.00 63 1014.4
20260831173505 31 248 11.3 19.3 0.00 0.66 0.00 64 1014.6
20260831173005 31 264 12.9 19.3 0.00 0.69 0.00 65 1014.3
20260831172004 30 252 9.7 19.3 0.00 0.71 0.00 65 1014.5
20260831171505 30 242 11.3 19.3 0.00 0.71 0.00 66 1014.5
20260831170004 30 209 9.7 16.1 0.00 0.76 0.00 66 1014.5
20260831165005 30 217 9.7 14.5 0.00 0.81 0.00 65 1014.6
20260831164505 30 217 8.0 20.9 0.00 0.81 0.00 66 1014.7
20260831164004 30 228 12.9 19.3 0.00 0.84 0.00 67 1014.7
20260831163005 30 226 14.5 20.9 0.00 0.84 0.00 66 1014.7
20260831162504 29 236 9.7 24.1 0.00 0.84 0.00 67 1014.7
20260831161505 30 236 9.7 19.3 0.00 0.84 0.00 68 1014.8
20260831161005 28 224 11.3 20.9 0.00 0.84 0.00 66 1014.7
20260831155005 28 226 11.3 20.9 0.00 0.84 0.00 68 1014.4
20260831154504 28 242 8.0 22.5 0.00 0.84 0.00 69 1014.2
20260831153505 28 217 14.5 25.7 0.00 0.84 0.00 67 1014.2
20260831153004 28 216 12.9 27.4 0.00 0.84 0.00 68 1014.0
20260831152504 28 231 19.3 25.7 0.00 0.84 0.00 66 1014.1
20260831152004 28 213 8.0 22.5 0.00 0.84 0.00 70 1014.1
20260831150504 28 235 9.7 16.1 0.00 0.84 0.00 73 1013.9
20260831145004 27 205 9.7 19.3 0.00 0.84 0.00 72 1013.6
20260831144005 27 209 9.7 16.1 0.00 0.84 0.00 73 1013.7
20260831143504 27 206 9.7 19.3 0.00 0.84 0.00 73 1013.6
20260831141004 26 206 3.2 11.3 0.00 0.84 0.00 77 1013.5
20260831140505 26 196 6.4 12.9 0.00 0.84 0.00 76 1013.6
20260831140004 25 207 8.0 14.5 0.00 0.84 0.00 78 1013.7
20260831135005 25 192 8.0 12.9 0.00 0.84 0.00 77 1013.6
20260831133504 25 207 9.7 16.1 0.00 0.84 0.00 78 1013.5
20260831133005 25 216 8.0 11.3 0.00 0.84 0.00 79 1013.6
20260831132504 24 200 6.4 12.9 0.00 0.84 0.00 80 1013.6
20260831132004 24 207 6.4 12.9 0.00 0.84 0.00 80 1013.6
20260831131505 23 199 9.7 19.3 0.00 0.84 0.00 81 1013.6
20260831130005 23 209 8.0 16.1 0.00 0.84 0.00 82 1013.6
20260831125005 23 194 9.7 14.5 0.00 0.84 0.00 82 1013.5
20260831124504 23 195 8.0 14.5 0.00 0.84 0.00 83 1013.5
20260831123035 22 198 11.3 19.3 0.00 0.84 0.00 83 1013.5
20260831121504 22 206 8.0 16.1 0.00 0.84 0.00 84 1013.4
20260831121004 22 197 6.4 11.3 0.00 0.84 0.00 84 1013.3
20260831120504 22 209 6.4 11.3 0.00 0.84 0.00 84 1013.2
20260831115505 22 214 6.4 14.5 0.00 0.84 0.00 83 1013.2
20260831114504 22 189 11.3 19.3 0.00 0.84 0.00 83 1013.0
20260831114004 22 190 9.7 16.1 0.00 0.84 0.00 83 1013.0
20260831112505 22 195 9.7 19.3 0.00 0.84 0.00 82 1013.1
20260831111004 22 188 11.3 16.1 0.00 0.84 0.00 82 1013.1
20260831110504 22 184 8.0 19.3 0.00 0.84 0.00 82 1013.2
20260831105504 22 180 9.7 16.1 0.00 0.84 0.00 81 1013.3
20260831105004 22 195 11.3 16.1 0.00 0.84 0.00 81 1013.3
20260831104505 22 206 8.0 19.3 0.00 0.84 0.00 81 1013.4
20260831104005 22 192 9.7 14.5 0.00 0.84 0.00 81 1013.3
20260831102504 22 194 9.7 14.5 0.00 0.84 0.00 81 1013.4
20260831102004 22 184 9.7 16.1 0.00 0.84 0.00 82 1013.4
20260831101504 22 183 8.0 19.3 0.00 0.84 0.00 82 1013.5
20260831101004 22 193 6.4 14.5 0.00 0.84 0.00 82 1013.5
20260831100504 22 196 8.0 14.5 0.00 0.84 0.00 82 1013.4
20260831100004 22 182 9.7 16.1 0.00 0.84 0.00 82 1013.5
20260831095503 22 198 8.0 11.3 0.00 0.84 0.00 82 1013.4
20260831092504 22 186 9.7 19.3 0.00 0.84 0.00 82 1013.4
20260831085504 22 180 8.0 14.5 0.00 0.84 0.00 83 1013.6
20260831085005 22 177 8.0 19.3 0.00 0.84 0.00 83 1013.6
20260831084504 22 185 9.7 19.3 0.00 0.84 0.00 84 1013.6
20260831082504 21 161 4.8 9.7 0.00 0.84 0.00 85 1013.5
20260831082004 21 159 3.2 8.0 0.00 0.84 0.00 85 1013.5
20260831080004 22 175 8.0 11.3 0.00 0.84 0.00 85 1013.3
20260831075004 22 163 8.0 11.3 0.00 0.84 0.00 85 1013.3
20260831074504 22 165 6.4 9.7 0.00 0.84 0.00 85 1013.3
20260831074004 22 169 8.0 12.9 0.00 0.84 0.00 85 1013.3
20260831071004 22 158 8.0 12.9 0.00 0.84 0.00 86 1013.7
20260831065504 22 147 8.0 16.1 0.00 0.84 0.00 85 1013.8
20260831065004 22 144 9.7 14.5 0.00 0.84 0.00 85 1013.9
20260831064504 22 142 9.7 12.9 0.00 0.84 0.00 86 1013.9
20260831064003 22 135 8.0 12.9 0.00 0.84 0.00 86 1013.9
20260831063004 22 130 8.0 14.5 0.00 0.84 0.00 86 1014.1
20260831061504 22 139 11.3 16.1 0.00 0.84 0.00 86 1014.1
20260831061004 22 135 11.3 14.5 0.00 0.84 0.00 86 1014.2
20260831055504 22 137 8.0 12.9 0.00 0.84 0.00 87 1014.1
20260831054004 22 134 6.4 12.9 0.00 0.84 0.00 87 1014.1
20260831053004 22 140 9.7 14.5 0.00 0.84 0.00 88 1014.2
20260831052503 22 133 4.8 4.8 0.00 0.84 0.00 88 1014.1
20260831051504 22 146 6.4 11.3 0.00 0.84 0.00 88 1014.2
20260831051004 22 146 8.0 11.3 0.00 0.84 0.00 88 1014.1
20260831050504 23 133 9.7 14.5 0.00 0.84 0.00 88 1014.1
20260831050004 22 143 8.0 19.3 0.00 0.84 0.00 88 1014.2
20260831044504 22 145 8.0 12.9 0.00 0.84 0.84 89 1014.2
20260831043006 22 133 8.0 11.3 0.00 0.84 0.84 90 1014.2
20260831041006 22 143 8.0 14.5 0.00 0.84 0.84 90 1014.2
20260831040005 22 134 11.3 19.3 0.00 0.84 0.84 90 1014.2
20260831035506 22 132 11.3 16.1 0.00 0.84 0.84 90 1014.2
20260831035006 22 135 9.7 14.5 0.00 0.84 0.84 90 1014.4
20260831034505 22 134 11.3 19.3 0.00 0.84 0.84 91 1014.5
20260831034006 22 138 8.0 19.3 0.00 0.84 0.84 91 1014.5
20260831033505 22 123 12.9 16.1 0.00 0.84 0.84 91 1014.4
20260831032506 22 127 9.7 14.5 0.00 0.84 0.84 92 1014.7
20260831031505 22 127 9.7 14.5 0.00 0.84 0.84 92 1014.8
20260831031006 22 125 9.7 12.9 0.00 0.84 0.84 92 1014.8
20260831025505 22 119 4.8 9.7 0.00 0.84 0.84 92 1015.0
20260831024006 22 95 8.0 11.3 0.00 0.86 0.84 92 1014.9